GSAT0219 (GALILEO 23)

Last updated on Thu Oct 30 2025 00:02:36 GMT+0000 (Coordinated Universal Time)

1 43566U 18060C 25301.80429601 -.00000066 00000+0 00000+0 0 9991 2 43566 57.2407 348.0377 0005094 275.2326 84.7744 1.70476074 45243
UTC large
Height (km)
Speed (km/s)
/
Latitude / Longitude
Inclination (degrees)
Orbital Period (minutes)
Azimuth
Elevation
Range (km)
Doppler Factor

Next 0 passes for location: London (51.5072 / 0.1276)

Sorry there are no passes over London.